Regional Weather Roundup
Issued by NWS

Home | Current Version | Previous Version | Graphics & Text | Print | Product List | Glossary On
Versions: 1 2 3 4 5 6 7 8 9 10 11 12 13 14 15 16 17 18 19 20 21 22 23 24 25 26 27 28 29 30 31 32 33 34 35 36 37 38 39 40 41 42 43 44 45 46 47 48 49 50
000
ASUS45 KCYS 221010
RWRWY

WYOMING REGIONAL WEATHER ROUNDUP
NATIONAL WEATHER SERVICE CHEYENNE WY
400 AM MDT MON SEP 22 2014

NOTE:  "FAIR" INDICATES FEW OR NO CLOUDS BELOW 12,000 FEET
WITH NO SIGNIFICANT WEATHER AND/OR OBSTRUCTIONS TO VISIBILITY.

WYZ001-221100-
YELLOWSTONE NATIONAL PARK

CITY           SKY/WX    TMP DP  RH WIND       PRES   REMARKS
LK YELLOWSTONE   N/A     47  46  97 CALM      30.30F
W YELLOWSTONE  NOT AVBL

$$
WYZ002>013-054>058-071-098>099-221100-
NORTHERN WYOMING

CITY           SKY/WX    TMP DP  RH WIND       PRES   REMARKS
JACKSON        CLOUDY    48  48 100 CALM      30.24S VSB 1/4
CODY             N/A    N/A N/A N/A MISG        N/A
GREYBULL       CLOUDY    58  48  69 CALM      30.02F
WORLAND        CLOUDY    60  46  59 SW6       30.05S
SHERIDAN       CLOUDY    54  45  71 CALM      30.04S
BUFFALO        CLOUDY    60  43  53 W6        30.07F
GILLETTE       CLOUDY    58  40  51 S14       30.11F
HULETT         FAIR      64  39  39 MISG      30.13
NEWCASTLE      FAIR      61  36  39 SE17      30.17

$$
WYZ014>020-022>026-101>103-221100-
CENTRAL WYOMING

CITY           SKY/WX    TMP DP  RH WIND       PRES   REMARKS
BIG PINEY      CLOUDY    51  49  92 CALM      30.28S
PINEDALE       FOG       45  45 100 SW3       30.29R VSB 1
DUBOIS         CLOUDY    46  45  93 NW16      30.23F
LANDER         PTCLDY    57  43  59 W9        30.12S
RIVERTON       CLEAR     58  46  64 S13       30.12F
CASPER         MOCLDY    50  40  68 CALM      30.16R
DOUGLAS        CLOUDY    56  40  55 SE14      30.16F

$$
WYZ021-027>030-104>119-221100-
SOUTHERN WYOMING

CITY           SKY/WX    TMP DP  RH WIND       PRES   REMARKS
EVANSTON       LGT RAIN  46  45  96 E5        30.28S FOG
KEMMERER       FOG       46  45  93 CALM      30.30S VSB 1/4
FORT BRIDGER     N/A     45  45 100 W10       30.30S
ROCK SPRINGS   PTCLDY    48  47  96 SW3       30.26S
DIXON          FAIR      49  47  92 CALM      30.28S
RAWLINS        PTCLDY    50  44  80 N5        30.26R
SARATOGA       FAIR      55  45  67 SE16G23   30.26F
LARAMIE        CLOUDY    52  45  77 SE13      30.26F
CHEYENNE       CLOUDY    51  42  71 S3        30.26F
TORRINGTON     MOCLDY    58  42  55 SE9       30.17F
PINE BLUFFS    FAIR      57  39  51 S14G23    30.24S

$$



USA.gov is the U.S. government's official web portal to all federal, state and local government web resources and services.